Time,TemperatureF,DewpointF,PressureIn,WindDirection,WindDirectionDegrees,WindSpeedMPH,WindSpeedGustMPH,Humidity,HourlyPrecipIn,Conditions,Clouds,dailyrainin,SoftwareType,DateUTC
2013-03-04 00:01:00,24.0,21.0,30.07,East,89,7.0,8.0,89,0.00,,,0.00,,2013-03-04 06:01:00,
2013-03-04 00:11:00,24.0,21.0,30.07,East,89,7.0,8.0,89,0.00,,,0.00,,2013-03-04 06:11:00,
2013-03-04 00:21:00,24.0,22.0,30.07,East,89,6.0,8.0,90,0.00,,,0.00,,2013-03-04 06:21:00,
2013-03-04 00:32:00,24.0,22.0,30.07,East,92,7.0,9.0,90,0.00,,,0.00,,2013-03-04 06:32:00,
2013-03-04 00:42:00,24.0,22.0,30.07,East,92,7.0,9.0,90,0.00,,,0.00,,2013-03-04 06:42:00,
2013-03-04 00:51:00,24.0,22.0,30.07,East,96,6.0,8.0,90,0.00,,,0.00,,2013-03-04 06:51:00,
2013-03-04 01:01:00,24.0,22.0,30.07,East,86,6.0,7.0,92,0.00,,,0.00,,2013-03-04 07:01:00,
2013-03-04 01:11:00,24.0,22.0,30.07,East,86,6.0,7.0,92,0.00,,,0.00,,2013-03-04 07:11:00,
2013-03-04 01:21:00,24.0,22.0,30.08,East,89,5.0,7.0,92,0.00,,,0.00,,2013-03-04 07:21:00,
2013-03-04 01:32:00,24.0,22.0,30.08,East,83,3.0,6.0,92,0.00,,,0.00,,2013-03-04 07:32:00,
2013-03-04 01:41:00,24.0,22.0,30.08,East,83,3.0,6.0,92,0.00,,,0.00,,2013-03-04 07:41:00,
2013-03-04 01:51:00,24.0,22.0,30.08,East,97,7.0,8.0,93,0.00,,,0.00,,2013-03-04 07:51:00,
2013-03-04 02:02:00,24.0,23.0,30.07,East,87,6.0,8.0,94,0.00,,,0.00,,2013-03-04 08:02:00,
2013-03-04 02:11:00,24.0,23.0,30.07,East,87,6.0,8.0,94,0.00,,,0.00,,2013-03-04 08:11:00,
2013-03-04 02:21:00,24.0,23.0,30.07,East,86,8.0,9.0,95,0.00,,,0.00,,2013-03-04 08:21:00,
2013-03-04 02:32:00,23.0,22.0,30.07,East,91,9.0,12.0,94,0.00,,,0.00,,2013-03-04 08:32:00,
2013-03-04 02:42:00,23.0,22.0,30.07,East,91,9.0,12.0,94,0.00,,,0.00,,2013-03-04 08:42:00,
2013-03-04 02:52:00,24.0,23.0,30.07,East,91,7.0,10.0,94,0.00,,,0.00,,2013-03-04 08:52:00,
2013-03-04 03:01:00,24.0,23.0,30.06,East,95,7.0,10.0,94,0.00,,,0.00,,2013-03-04 09:01:00,
2013-03-04 03:11:00,24.0,23.0,30.06,East,95,7.0,10.0,94,0.00,,,0.00,,2013-03-04 09:11:00,
2013-03-04 03:21:00,24.0,23.0,30.06,East,86,8.0,12.0,94,0.00,,,0.00,,2013-03-04 09:21:00,
2013-03-04 03:32:00,24.0,22.0,30.05,East,85,9.0,13.0,93,0.00,,,0.00,,2013-03-04 09:32:00,
2013-03-04 03:42:00,24.0,22.0,30.05,East,85,9.0,13.0,93,0.00,,,0.00,,2013-03-04 09:42:00,
2013-03-04 03:51:00,24.0,22.0,30.05,East,91,10.0,14.0,93,0.00,,,0.00,,2013-03-04 09:51:00,
2013-03-04 04:01:00,25.0,24.0,30.05,ESE,108,9.0,14.0,94,0.00,,,0.00,,2013-03-04 10:01:00,
2013-03-04 04:11:00,25.0,24.0,30.05,ESE,108,9.0,14.0,94,0.00,,,0.00,,2013-03-04 10:11:00,
2013-03-04 04:22:00,25.0,23.0,30.05,ESE,116,9.0,15.0,93,0.00,,,0.00,,2013-03-04 10:22:00,
2013-03-04 04:32:00,25.0,24.0,30.04,ESE,114,10.0,15.0,94,0.00,,,0.00,,2013-03-04 10:32:00,
2013-03-04 04:42:00,25.0,24.0,30.04,ESE,114,10.0,15.0,94,0.00,,,0.00,,2013-03-04 10:42:00,
2013-03-04 04:52:00,26.0,25.0,30.04,ESE,107,10.0,16.0,94,0.00,,,0.00,,2013-03-04 10:52:00,
2013-03-04 05:01:00,26.0,25.0,30.03,ESE,108,13.0,17.0,94,0.00,,,0.00,,2013-03-04 11:01:00,
2013-03-04 05:11:00,26.0,25.0,30.03,ESE,108,13.0,17.0,94,0.00,,,0.00,,2013-03-04 11:11:00,
2013-03-04 05:22:00,26.0,24.0,30.03,ESE,107,14.0,20.0,93,0.00,,,0.00,,2013-03-04 11:22:00,
2013-03-04 05:32:00,26.0,24.0,30.03,ESE,104,12.0,17.0,92,0.00,,,0.00,,2013-03-04 11:32:00,
2013-03-04 05:42:00,26.0,24.0,30.03,ESE,104,12.0,17.0,92,0.00,,,0.00,,2013-03-04 11:42:00,
2013-03-04 05:52:00,26.0,24.0,30.03,ESE,108,14.0,18.0,92,0.00,,,0.00,,2013-03-04 11:52:00,
2013-03-04 06:01:00,26.0,24.0,30.03,ESE,105,13.0,18.0,93,0.00,,,0.00,,2013-03-04 12:01:00,
2013-03-04 06:11:00,26.0,24.0,30.03,ESE,105,13.0,18.0,93,0.00,,,0.00,,2013-03-04 12:11:00,
2013-03-04 06:22:00,27.0,25.0,30.03,East,101,12.0,17.0,93,0.00,,,0.00,,2013-03-04 12:22:00,
2013-03-04 06:32:00,27.0,25.0,30.03,ESE,110,14.0,18.0,93,0.00,,,0.00,,2013-03-04 12:32:00,
2013-03-04 06:42:00,27.0,25.0,30.03,ESE,110,14.0,18.0,93,0.00,,,0.00,,2013-03-04 12:42:00,
2013-03-04 06:52:00,27.0,25.0,30.03,ESE,108,15.0,21.0,92,0.00,,,0.00,,2013-03-04 12:52:00,
2013-03-04 07:02:00,27.0,25.0,30.03,ESE,109,13.0,18.0,92,0.00,,,0.00,,2013-03-04 13:02:00,
2013-03-04 07:11:00,27.0,25.0,30.03,ESE,109,13.0,18.0,92,0.00,,,0.00,,2013-03-04 13:11:00,
2013-03-04 07:21:00,27.0,25.0,30.03,ESE,111,16.0,21.0,91,0.00,,,0.00,,2013-03-04 13:21:00,
2013-03-04 07:32:00,28.0,25.0,30.03,ESE,108,17.0,23.0,90,0.00,,,0.00,,2013-03-04 13:32:00,
2013-03-04 07:41:00,28.0,25.0,30.03,ESE,108,17.0,23.0,90,0.00,,,0.00,,2013-03-04 13:41:00,
2013-03-04 07:51:00,28.0,25.0,30.03,ESE,109,18.0,24.0,89,0.00,,,0.00,,2013-03-04 13:51:00,
2013-03-04 08:01:00,28.0,25.0,30.03,ESE,108,20.0,29.0,88,0.00,,,0.00,,2013-03-04 14:01:00,
2013-03-04 08:11:00,28.0,25.0,30.03,ESE,108,20.0,29.0,88,0.00,,,0.00,,2013-03-04 14:11:00,
2013-03-04 08:22:00,29.0,26.0,30.03,ESE,110,18.0,26.0,88,0.00,,,0.00,,2013-03-04 14:22:00,
2013-03-04 08:32:00,29.0,26.0,30.02,ESE,106,19.0,26.0,87,0.00,,,0.00,,2013-03-04 14:32:00,
2013-03-04 08:42:00,29.0,26.0,30.02,ESE,106,19.0,26.0,87,0.00,,,0.00,,2013-03-04 14:42:00,
2013-03-04 08:52:00,29.0,26.0,30.02,ESE,109,20.0,28.0,87,0.00,,,0.00,,2013-03-04 14:52:00,
2013-03-04 09:01:00,30.0,26.0,30.01,East,99,22.0,30.0,86,0.00,,,0.00,,2013-03-04 15:01:00,
2013-03-04 09:11:00,30.0,26.0,30.01,East,99,22.0,30.0,86,0.00,,,0.00,,2013-03-04 15:11:00,
2013-03-04 09:22:00,30.0,26.0,30.00,East,100,18.0,29.0,86,0.00,,,0.00,,2013-03-04 15:22:00,
2013-03-04 09:32:00,30.0,27.0,30.01,ESE,108,21.0,29.0,87,0.00,,,0.00,,2013-03-04 15:32:00,
2013-03-04 09:42:00,30.0,27.0,30.01,ESE,108,21.0,29.0,87,0.00,,,0.00,,2013-03-04 15:42:00,
2013-03-04 09:52:00,30.0,27.0,30.01,ESE,113,16.0,26.0,87,0.00,,,0.00,,2013-03-04 15:52:00,
2013-03-04 10:02:00,30.0,27.0,30.01,ESE,111,19.0,26.0,88,0.00,,,0.00,,2013-03-04 16:02:00,
2013-03-04 10:11:00,30.0,27.0,30.01,ESE,111,19.0,26.0,88,0.00,,,0.00,,2013-03-04 16:11:00,
2013-03-04 10:21:00,30.0,27.0,30.01,ESE,109,18.0,25.0,88,0.00,,,0.00,,2013-03-04 16:21:00,
2013-03-04 10:32:00,31.0,28.0,30.01,ESE,107,17.0,29.0,88,0.00,,,0.00,,2013-03-04 16:32:00,
2013-03-04 10:42:00,31.0,28.0,30.01,ESE,107,17.0,29.0,88,0.00,,,0.00,,2013-03-04 16:42:00,
2013-03-04 10:52:00,31.0,28.0,30.01,ESE,106,21.0,29.0,89,0.00,,,0.00,,2013-03-04 16:52:00,
2013-03-04 11:02:00,30.0,28.0,30.00,East,92,17.0,31.0,94,0.00,,,0.00,,2013-03-04 17:02:00,
2013-03-04 11:11:00,30.0,28.0,30.00,East,92,17.0,31.0,94,0.00,,,0.00,,2013-03-04 17:11:00,
2013-03-04 11:22:00,30.0,28.0,29.99,East,101,18.0,31.0,93,0.00,,,0.00,,2013-03-04 17:22:00,
2013-03-04 11:32:00,31.0,29.0,30.00,East,93,18.0,30.0,94,0.00,,,0.00,,2013-03-04 17:32:00,
2013-03-04 11:42:00,31.0,29.0,30.00,East,93,18.0,30.0,94,0.00,,,0.00,,2013-03-04 17:42:00,
2013-03-04 11:52:00,31.0,29.0,30.00,East,101,21.0,31.0,94,0.00,,,0.00,,2013-03-04 17:52:00,
2013-03-04 12:01:00,31.0,29.0,29.99,ESE,105,20.0,31.0,92,0.00,,,0.00,,2013-03-04 18:01:00,
2013-03-04 12:11:00,31.0,29.0,29.99,ESE,105,20.0,31.0,92,0.00,,,0.00,,2013-03-04 18:11:00,
2013-03-04 12:21:00,31.0,28.0,29.99,ESE,103,22.0,30.0,90,0.00,,,0.00,,2013-03-04 18:21:00,
2013-03-04 12:32:00,32.0,29.0,29.98,East,89,20.0,33.0,89,0.00,,,0.00,,2013-03-04 18:32:00,
2013-03-04 12:42:00,32.0,29.0,29.98,East,89,20.0,33.0,89,0.00,,,0.00,,2013-03-04 18:42:00,
2013-03-04 12:52:00,32.0,29.0,29.97,East,90,22.0,36.0,89,0.00,,,0.00,,2013-03-04 18:52:00,
2013-03-04 13:02:00,33.0,30.0,29.97,East,81,23.0,33.0,88,0.00,,,0.00,,2013-03-04 19:02:00,
2013-03-04 13:11:00,33.0,30.0,29.97,East,81,23.0,33.0,88,0.00,,,0.00,,2013-03-04 19:11:00,
2013-03-04 13:22:00,34.0,31.0,29.97,ENE,68,21.0,36.0,88,0.00,,,0.00,,2013-03-04 19:22:00,
2013-03-04 13:32:00,33.0,30.0,29.95,ENE,72,23.0,38.0,87,0.00,,,0.00,,2013-03-04 19:32:00,
2013-03-04 13:42:00,33.0,30.0,29.95,ENE,72,23.0,38.0,87,0.00,,,0.00,,2013-03-04 19:42:00,
2013-03-04 13:52:00,33.0,30.0,29.95,ENE,76,25.0,38.0,88,0.00,,,0.00,,2013-03-04 19:52:00,
2013-03-04 14:02:00,33.0,30.0,29.94,East,79,24.0,36.0,88,0.00,,,0.00,,2013-03-04 20:02:00,
2013-03-04 14:11:00,33.0,30.0,29.94,East,79,24.0,36.0,88,0.00,,,0.00,,2013-03-04 20:11:00,
2013-03-04 14:22:00,33.0,30.0,29.93,East,81,21.0,38.0,90,0.00,,,0.00,,2013-03-04 20:22:00,
2013-03-04 14:32:00,33.0,30.0,29.93,East,81,25.0,37.0,87,0.00,,,0.00,,2013-03-04 20:32:00,
2013-03-04 14:42:00,33.0,30.0,29.93,East,81,25.0,37.0,87,0.00,,,0.00,,2013-03-04 20:42:00,
2013-03-04 14:52:00,33.0,30.0,29.93,ENE,70,22.0,36.0,88,0.00,,,0.00,,2013-03-04 20:52:00,
2013-03-04 15:02:00,34.0,31.0,29.93,ENE,65,23.0,37.0,88,0.00,,,0.00,,2013-03-04 21:02:00,
2013-03-04 15:11:00,34.0,31.0,29.93,ENE,65,23.0,37.0,88,0.00,,,0.00,,2013-03-04 21:11:00,
2013-03-04 15:22:00,33.0,30.0,29.93,East,81,22.0,35.0,89,0.00,,,0.00,,2013-03-04 21:22:00,
2013-03-04 15:32:00,33.0,30.0,29.93,ENE,69,24.0,39.0,89,0.00,,,0.00,,2013-03-04 21:32:00,
2013-03-04 15:42:00,33.0,30.0,29.93,ENE,69,24.0,39.0,89,0.00,,,0.00,,2013-03-04 21:42:00,
2013-03-04 15:52:00,33.0,30.0,29.92,ENE,70,22.0,38.0,88,0.00,,,0.00,,2013-03-04 21:52:00,
2013-03-04 16:02:00,34.0,31.0,29.93,ENE,76,21.0,37.0,90,0.00,,,0.00,,2013-03-04 22:02:00,
2013-03-04 16:12:00,34.0,31.0,29.93,ENE,76,21.0,37.0,90,0.00,,,0.00,,2013-03-04 22:12:00,
2013-03-04 16:22:00,33.0,30.0,29.92,ENE,74,21.0,35.0,90,0.00,,,0.00,,2013-03-04 22:22:00,
2013-03-04 16:32:00,33.0,30.0,29.92,East,82,23.0,37.0,90,0.00,,,0.00,,2013-03-04 22:32:00,
2013-03-04 16:42:00,33.0,30.0,29.92,East,82,23.0,37.0,90,0.00,,,0.00,,2013-03-04 22:42:00,
2013-03-04 16:52:00,33.0,30.0,29.92,ENE,71,25.0,37.0,90,0.00,,,0.00,,2013-03-04 22:52:00,
2013-03-04 17:02:00,33.0,31.0,29.93,East,90,21.0,35.0,92,0.00,,,0.00,,2013-03-04 23:02:00,
2013-03-04 17:11:00,33.0,31.0,29.93,East,90,21.0,35.0,92,0.00,,,0.00,,2013-03-04 23:11:00,
2013-03-04 17:22:00,33.0,31.0,29.93,ENE,77,21.0,35.0,93,0.00,,,0.00,,2013-03-04 23:22:00,
2013-03-04 17:32:00,32.0,30.0,29.93,East,84,22.0,32.0,94,0.00,,,0.00,,2013-03-04 23:32:00,
2013-03-04 17:42:00,32.0,30.0,29.93,East,84,22.0,32.0,94,0.00,,,0.00,,2013-03-04 23:42:00,
2013-03-04 17:52:00,32.0,30.0,29.93,East,85,18.0,35.0,94,0.00,,,0.00,,2013-03-04 23:52:00,
2013-03-04 18:02:00,32.0,31.0,29.94,East,84,21.0,31.0,95,0.00,,,0.00,,2013-03-05 00:02:00,
2013-03-04 18:11:00,32.0,31.0,29.94,East,84,21.0,31.0,95,0.00,,,0.00,,2013-03-05 00:11:00,
2013-03-04 18:21:00,32.0,31.0,29.94,East,83,17.0,26.0,96,0.00,,,0.00,,2013-03-05 00:21:00,
2013-03-04 18:32:00,32.0,31.0,29.95,East,82,17.0,30.0,96,0.00,,,0.00,,2013-03-05 00:32:00,
2013-03-04 18:42:00,32.0,31.0,29.95,East,82,17.0,30.0,96,0.00,,,0.00,,2013-03-05 00:42:00,
2013-03-04 18:51:00,32.0,31.0,29.95,ENE,77,16.0,30.0,96,0.00,,,0.00,,2013-03-05 00:51:00,
2013-03-04 19:01:00,32.0,31.0,29.95,East,80,20.0,31.0,96,0.00,,,0.00,,2013-03-05 01:01:00,
2013-03-04 19:12:00,32.0,31.0,29.95,East,80,20.0,31.0,96,0.00,,,0.00,,2013-03-05 01:12:00,
2013-03-04 19:22:00,32.0,31.0,29.95,ENE,74,21.0,31.0,96,0.00,,,0.00,,2013-03-05 01:22:00,
2013-03-04 19:32:00,32.0,31.0,29.95,ENE,73,17.0,29.0,96,0.00,,,0.00,,2013-03-05 01:32:00,
2013-03-04 19:41:00,32.0,31.0,29.95,ENE,73,17.0,29.0,96,0.00,,,0.00,,2013-03-05 01:41:00,
2013-03-04 19:51:00,32.0,31.0,29.95,ENE,74,17.0,30.0,96,0.00,,,0.00,,2013-03-05 01:51:00,
2013-03-04 20:01:00,33.0,32.0,29.95,ENE,78,18.0,29.0,96,0.00,,,0.00,,2013-03-05 02:01:00,
2013-03-04 20:11:00,33.0,32.0,29.95,ENE,78,18.0,29.0,96,0.00,,,0.00,,2013-03-05 02:11:00,
2013-03-04 20:22:00,33.0,32.0,29.95,East,83,17.0,26.0,96,0.00,,,0.00,,2013-03-05 02:22:00,
2013-03-04 20:32:00,33.0,32.0,29.95,ENE,75,20.0,28.0,96,0.00,,,0.00,,2013-03-05 02:32:00,
2013-03-04 20:42:00,33.0,32.0,29.95,ENE,75,20.0,28.0,96,0.00,,,0.00,,2013-03-05 02:42:00,
2013-03-04 20:52:00,33.0,32.0,29.95,East,83,17.0,28.0,96,0.00,,,0.00,,2013-03-05 02:52:00,
2013-03-04 21:02:00,33.0,32.0,29.95,ENE,76,14.0,25.0,96,0.00,,,0.00,,2013-03-05 03:02:00,
2013-03-04 21:12:00,33.0,32.0,29.95,ENE,76,14.0,25.0,96,0.00,,,0.00,,2013-03-05 03:12:00,
2013-03-04 21:22:00,33.0,32.0,29.95,East,82,16.0,25.0,96,0.00,,,0.00,,2013-03-05 03:22:00,
2013-03-04 21:32:00,33.0,32.0,29.94,East,80,16.0,29.0,96,0.00,,,0.00,,2013-03-05 03:32:00,
2013-03-04 21:42:00,33.0,32.0,29.94,East,80,16.0,29.0,96,0.00,,,0.00,,2013-03-05 03:42:00,
2013-03-04 21:52:00,33.0,32.0,29.94,East,88,17.0,28.0,95,0.00,,,0.00,,2013-03-05 03:52:00,
2013-03-04 22:02:00,33.0,32.0,29.93,East,81,17.0,28.0,95,0.00,,,0.00,,2013-03-05 04:02:00,
2013-03-04 22:11:00,33.0,32.0,29.93,East,81,17.0,28.0,95,0.00,,,0.00,,2013-03-05 04:11:00,
2013-03-04 22:22:00,33.0,32.0,29.94,East,85,17.0,23.0,95,0.00,,,0.00,,2013-03-05 04:22:00,
2013-03-04 22:32:00,33.0,32.0,29.93,East,88,15.0,23.0,95,0.00,,,0.00,,2013-03-05 04:32:00,
2013-03-04 22:42:00,33.0,32.0,29.93,East,88,15.0,23.0,95,0.00,,,0.00,,2013-03-05 04:42:00,
2013-03-04 22:52:00,33.0,32.0,29.93,ENE,74,14.0,22.0,95,0.00,,,0.00,,2013-03-05 04:52:00,
2013-03-04 23:02:00,33.0,32.0,29.93,East,87,14.0,23.0,95,0.00,,,0.00,,2013-03-05 05:02:00,
2013-03-04 23:11:00,33.0,32.0,29.93,East,87,14.0,23.0,95,0.00,,,0.00,,2013-03-05 05:11:00,
2013-03-04 23:22:00,33.0,32.0,29.92,ENE,71,14.0,23.0,95,0.00,,,0.00,,2013-03-05 05:22:00,
2013-03-04 23:32:00,33.0,32.0,29.92,ENE,78,15.0,22.0,95,0.00,,,0.00,,2013-03-05 05:32:00,
2013-03-04 23:42:00,33.0,32.0,29.92,ENE,78,15.0,22.0,95,0.00,,,0.00,,2013-03-05 05:42:00,
2013-03-04 23:52:00,34.0,33.0,29.92,ENE,78,14.0,20.0,95,0.00,,,0.00,,2013-03-05 05:52:00,